EW8494 Weather Reports


time (UTC)temp
C
wind
direction
speed
KPH
gust
KPH
rain 1hr
cm
rain 24hr
cm
rain mn
cm
humidity
%
barometer
mb
20260505153137 17 0 3.2 11.3 0.00 0.00 0.00 53
20260505152133 16 23 3.2 8.0 0.00 0.00 0.00 52
20260505151116 16 45 1.6 6.4 0.00 0.00 0.00 53
20260505150115 16 45 1.6 6.4 0.00 0.00 0.00 54
20260505140113 13 45 3.2 6.4 0.00 0.00 0.00 56
20260505130112 13 23 4.8 8.0 0.00 0.00 0.00 57
20260505124109 13 23 4.8 8.0 0.00 0.00 0.00 58
20260505123131 13 23 4.8 8.0 0.00 0.00 0.00 58
20260505122111 12 23 6.4 16.1 0.00 0.00 0.00 58
20260505121111 12 23 6.4 11.3 0.00 0.00 0.00 60
20260505120110 12 23 6.4 14.5 0.00 0.00 0.00 61
20260505115109 12 0 6.4 12.9 0.00 0.00 0.00 61
20260505114111 13 23 4.8 11.3 0.00 0.00 0.00 59
20260505113110 13 23 4.8 8.0 0.00 0.00 0.00 57
20260505112109 13 23 4.8 11.3 0.00 0.00 0.00 58
20260505111109 14 23 4.8 6.4 0.00 0.00 0.00 58
20260505110109 15 45 1.6 3.2 0.00 0.00 0.00 55
20260505102107 14 0 4.8 8.0 0.00 0.00 0.00 61
20260505101106 15 23 3.2 8.0 0.00 0.00 0.00 58
20260505100107 15 23 1.6 4.8 0.00 0.00 0.00 58
20260505095106 15 0.0 0.0 0.00 0.00 0.00 58
20260505094106 16 0.0 3.2 0.00 0.00 0.00 56
20260505093105 16 0.0 0.0 0.00 0.00 0.00 55
20260505092105 16 0.0 0.0 0.00 0.00 0.00 58
20260505091146 16 0.0 0.0 0.00 0.00 0.00 57
20260505090106 16 0.0 0.0 0.00 0.00 0.00 56
20260505085124 16 0.0 0.0 0.00 0.00 0.00 57
20260505084104 17 0.0 0.0 0.00 0.00 0.00 57
20260505083103 17 0.0 0.0 0.00 0.00 0.00 55
20260505082103 17 0.0 0.0 0.00 0.00 0.00 51
20260505081104 18 0.0 0.0 0.00 0.00 0.00 52
20260505080103 18 0.0 0.0 0.00 0.00 0.00 51
20260505075103 18 0.0 4.8 0.00 0.00 0.00 48
20260505074123 18 0.0 0.0 0.00 0.00 0.00 51
20260505073101 18 0.0 0.0 0.00 0.00 0.00 49
20260505072102 19 0.0 0.0 0.00 0.00 0.00 46
20260505071103 19 0.0 0.0 0.00 0.00 0.00 46
20260505065100 18 45 3.2 8.0 0.00 0.00 0.00 48
20260505064101 17 23 4.8 6.4 0.00 0.00 0.00 53
20260505063121 17 0 6.4 9.7 0.00 0.00 0.00 48
20260505062140 18 23 3.2 6.4 0.00 0.00 0.00 46
20260505061101 18 23 3.2 6.4 0.00 0.00 0.00 45
20260505060100 19 0 4.8 8.0 0.00 0.00 0.00 43
20260505055059 18 45 4.8 8.0 0.00 0.00 0.00 49
20260505054059 18 45 3.2 4.8 0.00 0.00 0.00 48
20260505053059 20 45 3.2 12.9 0.00 0.00 0.00 43
20260505052100 18 338 6.4 9.7 0.00 0.00 0.00 40
20260505051058 19 23 3.2 4.8 0.00 0.00 0.00 44
20260505041057 21 0 3.2 4.8 0.00 0.00 0.00 41
20260505040056 21 0 4.8 6.4 0.00 0.00 0.00 37
20260505035057 22 0 4.8 6.4 0.00 0.00 0.00 35
20260505034056 22 0 4.8 8.0 0.00 0.00 0.00 33
20260505033057 22 0 3.2 4.8 0.00 0.00 0.00 34
20260505032055 22 0 4.8 6.4 0.00 0.00 0.00 35
20260505031056 22 23 4.8 6.4 0.00 0.00 0.00 36
20260505030056 22 23 3.2 4.8 0.00 0.00 0.00 36
20260505025055 23 23 3.2 4.8 0.00 0.00 0.00 36
20260505024053 25 23 3.2 4.8 0.00 0.00 0.00 33
20260505023054 27 45 1.6 4.8 0.00 0.00 0.00 29
20260505022053 28 0.0 0.0 0.00 0.00 0.00 25
20260505021056 29 0.0 0.0 0.00 0.00 0.00 23
20260505020053 30 45 1.6 3.2 0.00 0.00 0.00 20
20260505015052 30 23 3.2 4.8 0.00 0.00 0.00 17
20260505014053 30 23 1.6 4.8 0.00 0.00 0.00 17
20260505013055 30 23 3.2 8.0 0.00 0.00 0.00 15
20260505012052 31 23 4.8 8.0 0.00 0.00 0.00 13
20260505011112 31 23 4.8 8.0 0.00 0.00 0.00 12
20260505010052 31 23 6.4 11.3 0.00 0.00 0.00 10
20260505005112 31 23 6.4 14.5 0.00 0.00 0.00 10
20260505004112 31 23 8.0 16.1 0.00 0.00 0.00 11
20260505003053 31 23 8.0 19.3 0.00 0.00 0.00 7
20260505002053 31 23 9.7 16.1 0.00 0.00 0.00 10
20260505001052 31 23 6.4 16.1 0.00 0.00 0.00 9
20260505000052 31 23 9.7 17.7 0.00 0.00 0.00 11
20260504235051 30 338 8.0 24.1 0.00 0.00 0.00 14
20260504234052 30 180 1.6 6.4 0.00 0.00 0.00 15
20260504233049 30 158 1.6 4.8 0.00 0.00 0.00 15
20260504232050 30 158 3.2 8.0 0.00 0.00 0.00 16
20260504231049 31 203 3.2 8.0 0.00 0.00 0.00 14
20260504230051 31 135 1.6 4.8 0.00 0.00 0.00 17
20260504225110 31 113 1.6 4.8 0.00 0.00 0.00 17
20260504224050 31 135 1.6 4.8 0.00 0.00 0.00 18
20260504223049 31 248 1.6 4.8 0.00 0.00 0.00 13
20260504222049 31 315 4.8 8.0 0.00 0.00 0.00 17
20260504221050 31 338 1.6 4.8 0.00 0.00 0.00 13
20260504220048 30 23 3.2 8.0 0.00 0.00 0.00 13
20260504215128 30 315 1.6 6.4 0.00 0.00 0.00 13
20260504214108 30 225 3.2 11.3 0.00 0.00 0.00 18
20260504213047 30 338 3.2 9.7 0.00 0.00 0.00 15
20260504212107 30 23 4.8 12.9 0.00 0.00 0.00 17
20260504211048 30 23 3.2 9.7 0.00 0.00 0.00 13
20260504210047 30 23 4.8 8.0 0.00 0.00 0.00 13
20260504205046 30 45 4.8 8.0 0.00 0.00 0.00 16
20260504204046 30 45 4.8 6.4 0.00 0.00 0.00 17
20260504203106 29 45 6.4 20.9 0.00 0.00 0.00 16
20260504202045 29 0 6.4 16.1 0.00 0.00 0.00 17
20260504201045 29 45 6.4 14.5 0.00 0.00 0.00 18
20260504200045 28 23 6.4 14.5 0.00 0.00 0.00 20
20260504195044 28 23 8.0 19.3 0.00 0.00 0.00 20
20260504194045 28 23 6.4 17.7 0.00 0.00 0.00 20
20260504193045 27 23 6.4 12.9 0.00 0.00 0.00 20
20260504192045 27 45 6.4 12.9 0.00 0.00 0.00 19
20260504191104 27 23 6.4 16.1 0.00 0.00 0.00 21
20260504190043 27 338 8.0 12.9 0.00 0.00 0.00 19
20260504185044 27 45 8.0 17.7 0.00 0.00 0.00 18
20260504184103 27 0 9.7 17.7 0.00 0.00 0.00 21
20260504183043 27 338 9.7 16.1 0.00 0.00 0.00 19
20260504182042 27 0 9.7 17.7 0.00 0.00 0.00 19
20260504181043 26 338 8.0 14.5 0.00 0.00 0.00 21
20260504180043 26 338 6.4 14.5 0.00 0.00 0.00 23
20260504175041 25 338 8.0 14.5 0.00 0.00 0.00 23
20260504174041 26 0 9.7 20.9 0.00 0.00 0.00 20
20260504173101 25 0 8.0 14.5 0.00 0.00 0.00 19
20260504172041 25 0 8.0 14.5 0.00 0.00 0.00 19
20260504171040 25 338 9.7 14.5 0.00 0.00 0.00 23